Total_Precipitation_Accumulation
0.03 0.01 0.02 0.02 0.05 0.07 0.07 0.06 0.09 0.09 0.08 0.09 0.11 0.15 0.14 0.10 0.08 0.07 0.07 0.08 0.11 0.14 0.16 0.16 0.17 0.19 0.18 0.15 0.11 0.08 0.06 0.05 0.05 0.05 0.07 0.10 0.13 0.13 0.11 0.11 0.17 0.22 0.10
0.04 0.01 0.02 0.02 0.04 0.06 0.07 0.07 0.07 0.07 0.07 0.08 0.09 0.11 0.11 0.10 0.09 0.08 0.07 0.08 0.11 0.13 0.15 0.13 0.13 0.15 0.14 0.08 0.06 0.04 0.04 0.05 0.09 0.12 0.15 0.16 0.21 0.18 0.15 0.13 0.23 0.38 0.18
0.03 0.01 0.01 0.02 0.03 0.05 0.05 0.06 0.07 0.06 0.06 0.08 0.09 0.09 0.10 0.09 0.09 0.08 0.09 0.11 0.16 0.19 0.18 0.16 0.15 0.16 0.13 0.08 0.05 0.04 0.04 0.07 0.14 0.23 0.41 0.44 0.43 0.28 0.22 0.15 0.15 0.17 0.21
0.03 0.01 0.01 0.02 0.03 0.04 0.04 0.06 0.08 0.08 0.07 0.07 0.08 0.08 0.09 0.08 0.08 0.08 0.09 0.12 0.17 0.22 0.22 0.20 0.17 0.15 0.12 0.07 0.05 0.04 0.05 0.09 0.19 0.38 0.74 0.70 0.61 0.43 0.30 0.23 0.21 0.19 0.24
0.03 0.00 0.01 0.02 0.03 0.04 0.04 0.05 0.08 0.09 0.08 0.08 0.08 0.08 0.09 0.09 0.08 0.09 0.10 0.11 0.13 0.17 0.16 0.12 0.10 0.10 0.10 0.06 0.05 0.05 0.07 0.14 0.29 0.57 0.96 1.07 0.95 0.59 0.34 0.28 0.29 0.30 0.32
0.03 0.01 0.01 0.02 0.04 0.05 0.06 0.07 0.08 0.08 0.09 0.09 0.10 0.12 0.12 0.11 0.10 0.12 0.15 0.15 0.14 0.14 0.12 0.10 0.09 0.08 0.09 0.05 0.04 0.07 0.11 0.21 0.35 0.73 1.08 1.14 0.82 0.56 0.39 0.37 0.37 0.37 0.36
0.06 0.03 0.01 0.03 0.05 0.08 0.09 0.11 0.13 0.13 0.13 0.14 0.16 0.17 0.16 0.14 0.14 0.15 0.16 0.17 0.16 0.15 0.13 0.11 0.13 0.11 0.08 0.04 0.03 0.07 0.12 0.21 0.41 1.05 1.18 1.12 0.88 0.61 0.46 0.40 0.36 0.34 0.33
0.08 0.05 0.02 0.02 0.06 0.11 0.14 0.17 0.19 0.16 0.14 0.15 0.17 0.20 0.16 0.13 0.11 0.11 0.12 0.13 0.14 0.17 0.16 0.11 0.07 0.05 0.03 0.02 0.03 0.06 0.11 0.16 0.32 0.73 1.02 0.88 0.65 0.49 0.41 0.32 0.29 0.25 0.24
0.10 0.07 0.04 0.03 0.05 0.13 0.20 0.19 0.17 0.14 0.14 0.16 0.19 0.21 0.18 0.13 0.09 0.09 0.11 0.13 0.13 0.13 0.10 0.05 0.02 0.01 0.01 0.01 0.02 0.03 0.08 0.12 0.25 0.47 0.63 0.61 0.50 0.37 0.34 0.29 0.23 0.19 0.18
0.20 0.11 0.07 0.08 0.09 0.13 0.15 0.15 0.14 0.14 0.14 0.16 0.17 0.16 0.13 0.09 0.08 0.08 0.08 0.08 0.08 0.10 0.09 0.05 0.02 0.01 0.02 0.01 0.02 0.03 0.05 0.08 0.17 0.33 0.66 0.72 0.46 0.37 0.34 0.29 0.23 0.20 0.16
0.19 0.17 0.13 0.11 0.12 0.13 0.11 0.07 0.08 0.10 0.10 0.09 0.07 0.08 0.07 0.08 0.13 0.13 0.08 0.08 0.11 0.12 0.10 0.05 0.03 0.02 0.02 0.02 0.02 0.04 0.04 0.05 0.21 0.44 0.80 0.78 0.49 0.41 0.35 0.31 0.26 0.23 0.18
0.20 0.18 0.18 0.14 0.12 0.14 0.12 0.11 0.11 0.07 0.07 0.05 0.07 0.04 0.07 0.24 0.32 0.24 0.21 0.16 0.14 0.10 0.07 0.05 0.05 0.04 0.03 0.04 0.04 0.03 0.04 0.07 0.24 0.53 0.71 0.44 0.46 0.50 0.44 0.39 0.32 0.26 0.24
0.29 0.21 0.22 0.20 0.19 0.27 0.28 0.21 0.21 0.16 0.14 0.09 0.16 0.14 0.22 0.32 0.27 0.24 0.26 0.18 0.13 0.09 0.08 0.10 0.08 0.06 0.05 0.08 0.09 0.07 0.10 0.15 0.20 0.37 0.51 0.40 0.45 0.56 0.57 0.50 0.40 0.34 0.32
0.41 0.39 0.35 0.28 0.25 0.33 0.40 0.30 0.31 0.26 0.22 0.20 0.29 0.19 0.27 0.36 0.42 0.45 0.53 0.37 0.29 0.25 0.23 0.19 0.16 0.12 0.12 0.13 0.15 0.15 0.17 0.20 0.25 0.34 0.39 0.34 0.36 0.53 0.66 0.63 0.56 0.48 0.47
0.55 0.57 0.54 0.41 0.40 0.43 0.52 0.50 0.45 0.40 0.36 0.38 0.46 0.36 0.35 0.36 0.48 0.66 0.69 0.73 0.51 0.48 0.43 0.38 0.33 0.32 0.27 0.22 0.21 0.21 0.25 0.29 0.33 0.35 0.35 0.34 0.37 0.52 0.73 0.79 0.71 0.66 0.64
0.85 0.83 0.78 0.68 0.62 0.55 0.51 0.55 0.54 0.47 0.51 0.52 0.57 0.53 0.49 0.51 0.68 0.91 0.96 0.93 0.73 0.69 0.72 0.72 0.67 0.53 0.44 0.43 0.38 0.36 0.38 0.46 0.51 0.49 0.49 0.46 0.44 0.51 0.71 0.83 0.87 0.87 0.83
0.89 1.07 1.10 1.02 0.85 0.73 0.62 0.61 0.71 0.67 0.68 0.68 0.79 0.80 0.74 0.79 1.01 1.03 1.21 1.18 0.99 0.95 0.92 0.84 0.87 0.84 0.72 0.65 0.58 0.52 0.58 0.64 0.63 0.66 0.68 0.69 0.61 0.61 0.69 0.79 0.84 0.87 0.89
1.04 1.10 1.16 1.00 0.83 0.83 0.84 0.88 0.91 1.01 1.13 1.13 1.15 1.32 1.35 1.30 1.39 1.35 1.35 1.33 1.24 1.24 1.36 1.35 1.19 1.12 1.07 0.96 0.88 0.81 0.77 0.81 0.76 0.76 0.71 0.74 0.82 0.71 0.63 0.66 0.68 0.73 0.83
0.93 1.11 1.19 1.08 0.94 0.91 1.04 1.27 1.34 1.39 1.61 1.74 1.68 1.89 1.96 1.85 1.83 1.84 1.82 1.82 1.70 1.75 1.69 1.54 1.51 1.37 1.34 1.20 0.97 0.90 0.85 0.87 0.79 0.70 0.66 0.68 0.74 0.70 0.62 0.57 0.59 0.65 0.74
0.99 1.11 1.23 1.27 1.30 1.30 1.35 1.54 1.78 1.91 2.02 2.31 2.36 2.35 2.41 2.48 2.52 2.52 2.42 2.34 2.22 2.08 1.95 1.83 1.74 1.53 1.38 1.20 0.92 0.79 0.74 0.67 0.64 0.63 0.59 0.58 0.58 0.54 0.54 0.54 0.51 0.49 0.55
1.27 1.41 1.45 1.52 1.65 1.80 2.01 2.03 2.14 2.36 2.68 2.96 3.15 3.20 3.20 3.12 3.07 2.87 2.73 2.66 2.45 2.22 2.04 1.91 1.69 1.52 1.34 1.15 1.06 0.90 0.67 0.54 0.52 0.48 0.45 0.45 0.44 0.45 0.50 0.51 0.46 0.42 0.41
1.57 1.67 1.77 1.86 2.14 2.54 2.91 3.31 3.62 3.75 3.76 3.95 4.04 4.03 3.88 3.73 3.54 3.27 3.15 2.94 2.64 2.40 2.16 1.91 1.67 1.52 1.35 1.20 1.18 1.13 0.91 0.68 0.50 0.39 0.36 0.33 0.31 0.29 0.30 0.31 0.30 0.31 0.32
1.63 1.81 1.93 2.19 2.80 3.54 3.86 4.15 4.70 4.96 4.69 4.45 4.30 4.19 4.11 4.09 4.00 3.74 3.57 3.24 2.90 2.54 2.23 1.94 1.68 1.51 1.39 1.26 1.13 1.14 1.04 0.85 0.59 0.41 0.31 0.24 0.21 0.21 0.21 0.21 0.23 0.25 0.25
1.85 1.92 2.09 2.58 3.31 3.94 4.38 4.88 5.38 5.57 5.54 5.40 4.93 4.42 3.97 3.64 3.44 3.30 3.15 2.93 2.63 2.29 2.03 1.77 1.50 1.33 1.30 1.19 1.03 0.88 0.78 0.69 0.59 0.46 0.31 0.23 0.19 0.18 0.17 0.16 0.18 0.20 0.23
1.60 1.98 2.23 2.77 3.43 4.09 4.76 5.37 5.72 5.91 5.85 5.44 4.67 3.91 3.48 3.19 2.89 2.65 2.48 2.30 2.07 1.84 1.62 1.47 1.32 1.17 1.07 0.97 0.84 0.74 0.66 0.58 0.49 0.44 0.38 0.27 0.23 0.19 0.17 0.15 0.16 0.17 0.19
1.50 1.80 2.21 2.52 3.12 3.78 4.34 4.83 4.96 5.08 5.00 4.57 4.10 3.60 3.22 2.78 2.30 1.94 1.73 1.56 1.40 1.23 1.13 1.07 0.99 0.89 0.81 0.72 0.62 0.54 0.49 0.48 0.44 0.41 0.36 0.28 0.23 0.19 0.16 0.15 0.16 0.16 0.16